EFW2550 EGKK-LSGG

Flight info

Callsign EFW2550
Flight time N/A
Altitude 23000
Route BOGNA L612 XAMAB/N0458F310 UL612 VEULE DCT PEKIM DCT PILUL DCT PIMUP/N0439F270 DCT PIXIS DCT PIBAT DCT LUSAR
Aircraft A320/M-SDE3FGHIRWY/LB1

Departure

Time 2026-04-15 13:28
Airport London Gatwick Airport (EGKK)

Arrival

Time N/A
Airport Geneva International Airport (LSGG)
Time Latitude Longitude Altitude Speed Heading
2026-04-15 12:18 51.15404 -0.16404 213 ft 0 kts 78°
2026-04-15 13:16 51.15404 -0.16405 204 ft 0 kts 78°
2026-04-15 13:17 51.15402 -0.16417 214 ft 2 kts 78°
2026-04-15 13:17 51.15399 -0.16444 211 ft 2 kts 112°
2026-04-15 13:17 51.15410 -0.16462 213 ft 2 kts 161°
2026-04-15 13:18 51.15416 -0.16465 215 ft 0 kts 168°
2026-04-15 13:21 51.15412 -0.16464 213 ft 2 kts 168°
2026-04-15 13:22 51.15387 -0.16463 213 ft 5 kts 183°
2026-04-15 13:22 51.15346 -0.16467 207 ft 7 kts 185°
2026-04-15 13:22 51.15333 -0.16472 206 ft 0 kts 194°
2026-04-15 13:23 51.15330 -0.16473 213 ft 1 kts 194°
2026-04-15 13:23 51.15301 -0.16508 212 ft 8 kts 234°
2026-04-15 13:24 51.15284 -0.16594 209 ft 3 kts 255°
2026-04-15 13:24 51.15282 -0.16605 208 ft 4 kts 255°
2026-04-15 13:24 51.15266 -0.16634 214 ft 0 kts 215°
2026-04-15 13:24 51.15265 -0.16634 214 ft 0 kts 215°
2026-04-15 13:25 51.15254 -0.16641 208 ft 3 kts 192°
2026-04-15 13:25 51.15253 -0.16642 208 ft 0 kts 191°
2026-04-15 13:26 51.15238 -0.16641 214 ft 4 kts 175°
2026-04-15 13:26 51.15198 -0.16633 203 ft 7 kts 172°
2026-04-15 13:26 51.15142 -0.16652 212 ft 10 kts 221°
2026-04-15 13:26 51.15120 -0.16767 202 ft 13 kts 264°
2026-04-15 13:27 51.15098 -0.16938 208 ft 28 kts 259°
2026-04-15 13:27 51.15001 -0.17613 209 ft 92 kts 258°
2026-04-15 13:27 51.14822 -0.18850 210 ft 140 kts 259°
2026-04-15 13:27 51.14671 -0.20527 488 ft 157 kts 259°
2026-04-15 13:28 51.14478 -0.22294 974 ft 168 kts 253°
2026-04-15 13:28 51.14167 -0.24163 1648 ft 175 kts 248°
2026-04-15 13:28 51.13853 -0.26094 2022 ft 193 kts 251°
2026-04-15 13:28 51.13533 -0.28263 2528 ft 205 kts 252°
2026-04-15 13:29 51.13221 -0.30483 3400 ft 204 kts 253°
2026-04-15 13:29 51.12916 -0.32679 4328 ft 204 kts 253°
2026-04-15 13:29 51.12605 -0.34904 4836 ft 207 kts 252°
2026-04-15 13:29 51.12294 -0.37138 4954 ft 206 kts 253°
2026-04-15 13:30 51.11975 -0.39369 4976 ft 205 kts 249°
2026-04-15 13:30 51.11249 -0.41226 4983 ft 199 kts 219°
2026-04-15 13:30 51.09976 -0.42066 4982 ft 207 kts 187°
2026-04-15 13:30 51.08507 -0.41886 4985 ft 211 kts 180°
2026-04-15 13:31 51.07027 -0.41680 4991 ft 225 kts 181°
2026-04-15 13:31 51.05410 -0.41495 4987 ft 238 kts 181°
2026-04-15 13:31 51.03738 -0.41301 4986 ft 242 kts 181°
2026-04-15 13:31 51.02041 -0.41095 4982 ft 242 kts 181°
2026-04-15 13:32 51.00359 -0.40882 5003 ft 243 kts 181°
2026-04-15 13:32 50.98670 -0.40669 5520 ft 249 kts 181°
2026-04-15 13:32 50.96915 -0.40447 5923 ft 249 kts 181°
2026-04-15 13:32 50.95194 -0.40228 5999 ft 248 kts 180°
2026-04-15 13:33 50.93501 -0.40011 6002 ft 246 kts 181°
2026-04-15 13:33 50.91775 -0.39791 6011 ft 245 kts 181°
2026-04-15 13:33 50.90083 -0.39578 6003 ft 246 kts 181°
2026-04-15 13:33 50.88381 -0.39363 6004 ft 246 kts 181°
2026-04-15 13:34 50.86684 -0.39150 6001 ft 248 kts 181°
2026-04-15 13:34 50.84934 -0.38928 6000 ft 249 kts 181°
2026-04-15 13:34 50.83245 -0.38389 6007 ft 256 kts 166°
2026-04-15 13:34 50.81645 -0.37042 6014 ft 263 kts 154°
2026-04-15 13:35 50.80122 -0.35454 6011 ft 264 kts 154°
2026-04-15 13:35 50.78594 -0.33864 6012 ft 264 kts 154°
2026-04-15 13:35 50.77041 -0.32250 6011 ft 264 kts 154°
2026-04-15 13:35 50.75506 -0.30661 6005 ft 264 kts 154°
2026-04-15 13:36 50.73990 -0.29093 6001 ft 264 kts 154°
2026-04-15 13:36 50.72452 -0.27502 6003 ft 264 kts 154°
2026-04-15 13:36 50.70935 -0.25935 6006 ft 264 kts 154°
2026-04-15 13:36 50.69390 -0.24334 6070 ft 267 kts 154°
2026-04-15 13:37 50.67822 -0.22695 6909 ft 268 kts 153°
2026-04-15 13:37 50.66281 -0.21073 7804 ft 269 kts 153°
2026-04-15 13:37 50.64724 -0.19432 8644 ft 270 kts 153°
2026-04-15 13:37 50.63139 -0.17766 9419 ft 274 kts 153°
2026-04-15 13:38 50.61535 -0.16084 10221 ft 278 kts 153°
2026-04-15 13:38 50.59877 -0.14359 10527 ft 298 kts 153°
2026-04-15 13:38 50.58076 -0.12503 10684 ft 321 kts 153°
2026-04-15 13:38 50.56181 -0.10544 10939 ft 338 kts 153°
2026-04-15 13:39 50.54178 -0.08453 11520 ft 343 kts 153°
2026-04-15 13:39 50.52874 -0.07087 11948 ft 346 kts 153°
2026-04-15 13:39 50.50192 -0.04274 12829 ft 350 kts 153°
2026-04-15 13:39 50.48833 -0.02851 13252 ft 352 kts 153°
2026-04-15 13:40 50.46090 0.00010 14135 ft 355 kts 153°
2026-04-15 13:40 50.44715 0.01438 14558 ft 356 kts 153°
2026-04-15 13:40 50.42644 0.03586 15156 ft 358 kts 153°
2026-04-15 13:40 50.40562 0.05742 15685 ft 361 kts 153°
2026-04-15 13:41 50.38451 0.07922 16229 ft 364 kts 153°
2026-04-15 13:41 50.36340 0.10100 16790 ft 367 kts 153°
2026-04-15 13:41 50.34193 0.12321 17399 ft 370 kts 153°
2026-04-15 13:41 50.32028 0.14558 18004 ft 373 kts 153°
2026-04-15 13:42 50.29850 0.16805 18564 ft 376 kts 153°
2026-04-15 13:42 50.27658 0.19065 19134 ft 378 kts 153°
2026-04-15 13:42 50.25465 0.21321 19701 ft 380 kts 153°
2026-04-15 13:42 50.23240 0.23606 20270 ft 382 kts 153°
2026-04-15 13:43 50.21011 0.25889 20822 ft 384 kts 153°
2026-04-15 13:43 50.18773 0.28184 21313 ft 386 kts 153°
2026-04-15 13:43 50.16521 0.30497 21774 ft 389 kts 153°
2026-04-15 13:43 50.14267 0.32812 22249 ft 391 kts 153°
2026-04-15 13:44 50.11978 0.35160 22725 ft 393 kts 153°
2026-04-15 13:44 50.09713 0.37480 23175 ft 395 kts 153°
2026-04-15 13:44 50.07416 0.39833 23605 ft 397 kts 153°
2026-04-15 13:44 50.05083 0.42218 23992 ft 399 kts 153°
2026-04-15 13:45 50.02770 0.44586 24346 ft 401 kts 153°
2026-04-15 13:45 50.00405 0.47005 24630 ft 404 kts 153°
2026-04-15 13:45 49.98039 0.49421 24917 ft 408 kts 153°
2026-04-15 13:47 49.81552 0.67982 27101 ft 434 kts 144°
2026-04-15 13:47 49.79391 0.71136 27402 ft 436 kts 144°
2026-04-15 13:47 49.77169 0.74369 27722 ft 438 kts 144°
2026-04-15 13:48 49.74937 0.77613 28172 ft 437 kts 144°
2026-04-15 13:48 49.72743 0.80801 28561 ft 437 kts 144°
2026-04-15 13:48 49.70527 0.84012 28960 ft 437 kts 144°
2026-04-15 13:48 49.68281 0.87261 29408 ft 436 kts 144°
2026-04-15 13:49 49.66068 0.90451 29827 ft 435 kts 144°
2026-04-15 13:49 49.63848 0.93648 30232 ft 436 kts 144°
2026-04-15 13:49 49.61640 0.96827 30597 ft 435 kts 144°
2026-04-15 13:49 49.59423 1.00017 31000 ft 435 kts 144°
2026-04-15 13:50 49.57215 1.03190 31422 ft 433 kts 144°
2026-04-15 13:50 49.55042 1.06316 31815 ft 432 kts 144°
2026-04-15 13:50 49.52816 1.09510 32235 ft 431 kts 144°
2026-04-15 13:50 49.50627 1.12646 32585 ft 431 kts 144°
2026-04-15 13:51 49.48456 1.15748 32934 ft 431 kts 144°
2026-04-15 13:51 49.46253 1.18884 33322 ft 431 kts 144°
2026-04-15 13:51 49.44033 1.22041 33748 ft 430 kts 144°
2026-04-15 13:51 49.41845 1.25159 34160 ft 429 kts 144°
2026-04-15 13:52 49.39685 1.28234 34497 ft 428 kts 144°
2026-04-15 13:52 49.37504 1.31331 34808 ft 428 kts 144°
2026-04-15 13:52 49.35315 1.34433 35039 ft 428 kts 144°
2026-04-15 13:52 49.33097 1.37569 35129 ft 431 kts 144°
2026-04-15 13:53 49.28654 1.43835 35131 ft 440 kts 144°
2026-04-15 13:53 49.24110 1.50240 35148 ft 443 kts 144°
2026-04-15 13:54 49.19609 1.56599 35155 ft 443 kts 144°
2026-04-15 13:54 49.15070 1.62969 35163 ft 443 kts 144°
2026-04-15 13:55 49.10498 1.69359 35166 ft 443 kts 144°
2026-04-15 13:55 49.05983 1.75656 35146 ft 443 kts 144°
2026-04-15 13:56 49.01396 1.82040 35126 ft 444 kts 144°
2026-04-15 13:56 48.96821 1.88395 35135 ft 445 kts 144°
2026-04-15 13:57 48.92243 1.94729 35147 ft 445 kts 144°
2026-04-15 13:57 48.87652 2.01069 35194 ft 446 kts 144°
2026-04-15 13:58 48.83059 2.07388 35206 ft 446 kts 144°
2026-04-15 13:58 48.78464 2.13709 35206 ft 446 kts 144°
2026-04-15 13:59 48.73872 2.20010 35183 ft 446 kts 144°
2026-04-15 13:59 48.69289 2.26272 35183 ft 447 kts 144°
2026-04-15 14:00 48.64673 2.32562 35185 ft 447 kts 144°
2026-04-15 14:00 48.60009 2.38902 35177 ft 448 kts 144°
2026-04-15 14:01 48.53084 2.48292 35168 ft 449 kts 144°